Emporia, KS

10:22 PM CDT on July 20, 2017 (GMT -0500)
Emporia Municipal

Weather History for KEMP - August, 2013

Change the Weather History Date:

Saturday, August 17, 2013

  Actual Average Record
Temperature  
Mean Temperature 67 °F 78 °F  
Max Temperature 77 °F 90 °F 102 °F (2003)
Min Temperature 57 °F 66 °F 55 °F (2012)
Degree Days  
Heating Degree Days 0 0  
Month to date heating degree days 0 0  
Since 1 June heating degree days 14 8  
Since 1 July heating degree days 2 0  
Cooling Degree Days 2 13  
Month to date cooling degree days 129 232  
Year to date cooling degree days 932 1048  
Since 1 June cooling degree days 816 929  
Growing Degree Days 16 (Base 50)    
Moisture  
Dew Point 57 °F    
Average Humidity 75    
Maximum Humidity 100    
Minimum Humidity 50    
Precipitation  
Precipitation 0.00 in 0.16 in 1.11 in (1997)
Month to date precipitation 4.91 1.62  
Year to date precipitation 24.09 24.41  
Sea Level Pressure  
Sea Level Pressure 30.15 in    
Wind  
Wind Speed 4 mph (ESE)    
Max Wind Speed 13 mph    
Max Gust Speed 20 mph    
Visibility 8 miles    
Events      
T = Trace of Precipitation, MM = Missing Value Source: NWS Daily Summary

Daily Weather History Graph

Daily Weather History Graph

Search for Another Location

Airport or City:

Trip Planner

Search our weather history database for the weather conditions in past years. The results will help you decide how hot, cold, wet, or windy it might be!

Date:

Astronomy

Aug. 17, 2013 Rise Set
Actual Time 6:41 AM CDT 8:15 PM CDT
Civil Twilight 6:13 AM CDT 8:43 PM CDT
Nautical Twilight 5:39 AM CDT 9:17 PM CDT
Astronomical Twilight 5:03 AM CDT 9:52 PM CDT
Moon 5:30 PM CDT (8/17) 2:47 AM CDT (8/17)
Length of Visible Light 14h 30m
Length of Day
13h 34m
Waxing Gibbous, 84% of the Moon is Illuminated
Aug 17
Waxing Gibbous
Aug 20
Full
Aug 28
Last Quarter
Sep 5
New
Sep 12
First Quarter

Hourly Weather History & Observations

Time (CDT) Temp. Dew Point Humidity Pressure Visibility Wind Dir Wind Speed Gust Speed Precip Events Conditions
12:53 AM 63.0 °F 59.0 °F 87% 30.16 in 10.0 mi SE 5.8 mph - N/A   Clear
1:53 AM 61.0 °F 59.0 °F 93% 30.16 in 10.0 mi SE 4.6 mph - N/A   Clear
2:53 AM 61.0 °F 59.0 °F 93% 30.16 in 10.0 mi Calm Calm - N/A   Clear
3:53 AM 60.1 °F 59.0 °F 96% 30.17 in 7.0 mi Calm Calm - N/A   Clear
4:53 AM 59.0 °F 57.9 °F 96% 30.17 in 8.0 mi Calm Calm - N/A   Clear
5:53 AM 57.9 °F 57.9 °F 100% 30.16 in 5.0 mi Calm Calm - N/A   Clear
6:53 AM 57.0 °F 57.0 °F 100% 30.17 in 3.0 mi Calm Calm - N/A   Clear
7:17 AM 57.2 °F 57.2 °F 100% 30.19 in 2.5 mi Calm Calm - N/A   Clear
7:25 AM 59.0 °F 57.2 °F 94% 30.19 in 3.0 mi Calm Calm - N/A   Clear
7:53 AM 61.0 °F 60.1 °F 97% 30.19 in 4.0 mi Calm Calm - N/A   Clear
8:53 AM 64.9 °F 61.0 °F 87% 30.18 in 8.0 mi East 4.6 mph - N/A   Clear
9:53 AM 68.0 °F 57.9 °F 70% 30.18 in 10.0 mi ESE 6.9 mph - N/A   Clear
10:53 AM 71.1 °F 55.9 °F 59% 30.20 in 10.0 mi ESE 6.9 mph - N/A   Clear
11:53 AM 73.0 °F 55.9 °F 55% 30.18 in 10.0 mi Variable 5.8 mph - N/A   Partly Cloudy
12:53 PM 73.0 °F 55.0 °F 53% 30.17 in 10.0 mi Variable 3.5 mph - N/A   Clear
1:53 PM 75.0 °F 57.0 °F 53% 30.15 in 10.0 mi ESE 9.2 mph - N/A   Clear
2:53 PM 75.9 °F 57.0 °F 52% 30.14 in 10.0 mi ESE 5.8 mph - N/A   Clear
3:53 PM 75.9 °F 57.0 °F 52% 30.12 in 10.0 mi SE 6.9 mph - N/A   Clear
4:53 PM 75.9 °F 55.9 °F 50% 30.11 in 10.0 mi East 8.1 mph - N/A   Clear
5:53 PM 75.9 °F 55.9 °F 50% 30.11 in 10.0 mi East 8.1 mph - N/A   Clear
6:53 PM 73.9 °F 55.0 °F 52% 30.10 in 10.0 mi ESE 6.9 mph - N/A   Clear
7:53 PM 70.0 °F 57.9 °F 65% 30.10 in 10.0 mi East 5.8 mph - N/A   Clear
8:53 PM 66.0 °F 57.9 °F 75% 30.11 in 10.0 mi East 4.6 mph - N/A   Clear
9:53 PM 64.9 °F 57.0 °F 75% 30.12 in 10.0 mi ESE 5.8 mph - N/A   Clear
10:53 PM 63.0 °F 57.0 °F 81% 30.13 in 10.0 mi ESE 4.6 mph - N/A   Clear
11:53 PM 62.1 °F 57.0 °F 84% 30.13 in 10.0 mi ESE 4.6 mph - N/A   Clear